Regional Weather Roundup
Issued by NWS Cleveland, OH

Home | Current Version | Previous Version | Text Only | Print | Product List | Glossary Off
Versions: 1 2 3 4 5 6 7 8 9 10 11 12 13 14 15 16 17 18 19 20 21 22 23 24 25 26 27 28 29 30 31 32 33 34 35 36 37 38 39 40 41 42 43 44 45 46 47 48 49 50

000
ASUS41 KCLE 201000
RWRCLE
OHIO REGIONAL WEATHER ROUNDUP
NATIONAL WEATHER SERVICE WILMINGTON, OH
600 AM EDT SUN APR 20 2014

NOTE: "FAIR" INDICATES FEW OR NO CLOUDS BELOW 12,000 FEET WITH NO
SIGNIFICANT WEATHER AND/OR OBSTRUCTIONS TO VISIBILITY.

OHZ001>008-015>018-024>027-034-035-043-044-201100-
   NORTHWEST OHIO

CITY           SKY/WX    TMP DP  RH WIND       PRES   REMARKS
DEFIANCE       CLEAR     34  29  82 CALM      30.29F
FINDLAY        PTCLDY    37  31  78 NE5       30.29S
TOLEDO EXPRESS CLEAR     36  32  85 CALM      30.30F
TOLEDO METCALF PTCLDY    36  31  82 CALM      30.31F
LIMA           PTCLDY    36  30  79 E8        30.28S
$$

OHZ009>014-019>023-028>033-038-089-201100-
   NORTHEAST OHIO

CITY           SKY/WX    TMP DP  RH WIND       PRES   REMARKS
CLE-HOPKINS    CLEAR     39  30  70 CALM      30.34S
CLE-LAKEFRONT  CLEAR     41  31  67 SE3       30.30S
CUY CO. ARPT   NOT AVBL
LORAIN-ELYRIA  CLEAR     36  32  85 CALM      30.31S
ASHTABULA      CLEAR     42  27  55 SE5       30.33R
AKRON-CANTON   PTCLDY    41  30  65 E6        30.31S
WOOSTER        NOT AVBL
MANSFIELD      CLEAR     39  30  70 E10       30.29F
YOUNGSTOWN     PTCLDY    40  27  59 SE7       30.32R
$$

OHZ042-051>053-060>062-070>072-077>081-201100-
  SOUTHWEST OHIO

CITY           SKY/WX    TMP DP  RH WIND       PRES   REMARKS
CINC-COVINGTON PTCLDY    45  34  65 N6        30.25R
CINC-LUNKEN    CLEAR     38  37  97 CALM      30.28R
HAMILTON       CLEAR     40  35  83 CALM      30.28R
DAYTON         NOT AVBL
WRIGHT-PAT AFB CLEAR     40  33  74 CALM      30.28R
DAYTON GENERAL CLEAR     41  34  76 NE9       30.26R
WILMINGTON     CLEAR     42  32  67 NE8       30.27R
$$

OHZ036-037-039>041-045>050-054>059-063>069-073>076-082>088-201100-
  CENTRAL AND SOUTHEAST OHIO

CITY           SKY/WX    TMP DP  RH WIND       PRES   REMARKS
COLUMBUS       PTCLDY    46  29  51 CALM      30.28R
OSU AIRPORT    CLEAR     42  30  62 N5        30.28S
BOLTON FIELD   NOT AVBL
RICKENBACK AFB NOT AVBL
NEWARK         CLEAR     41  30  65 NE3       30.28R
MARION         CLEAR     34  29  82 CALM      30.29S
LANCASTER      CLEAR     40  32  73 N3        30.28R
ZANESVILLE     CLEAR     40  29  64 N5        30.28R
NEW PHILLY     CLEAR     36  30  79 CALM      30.32R
$$



USA.gov is the U.S. government's official web portal to all federal, state and local government web resources and services.